User: anonymous   Login
Location: Chuathbaluk
(61.5726°N, 159.2454°W)
Time: 17:50:17
(UTC+00:00)
Language:

TIGRISAT - Orbit

View from above orbital plane
View from above orbital plane
View from above satellite
View from above satellite

Ground track
Ground track

The orbit data is extracted from the following two-line orbital elements,

1 40043U 14033AK  21129.16595033  .00000145  00000-0  28435-4 0  9995
2 40043  97.6767 335.0381 0060507  26.7028 333.7276 14.74521639370048
Epoch (UTC): 09 May 2021 03:58:58
Eccentricity: 0.0060507
inclination: 97.6767°
perigee height: 604 km
apogee height: 689 km
right ascension of ascending node: 335.0381°
argument of perigee: 26.7028°
revolutions per day: 14.74521639
mean anomaly at epoch: 333.7276°
orbit number at epoch: 37004

The dashed part of the orbit path shows where the satellite is in the earth's shadow,  

DLR